Airfield :
LOGIN :

Register | Disclaimer

   EN    FR    IT 

 










Legend :    VFR   Marginal VFR   IFR   Intensive IFR   Very Intensive IFR
Visi :
Ceiling :
>= 8 km
>= 3000ft
5 to 8 km
1000 to 3000 ft
1500m to 5 km
500 to 1000 ft
800 to 1500m
200 to 500 ft
< 800m
< 200 ft
Symbols :   Thunderstorms  Fog  Heavy snow  Heavy precipitations  Wind > 20 kt
SIGMETs :     Misc.  Thunderstorms  Icing  Turbulence  Mountain Waves  Volcanic Ashes







- Airport Elevation : 37 ft
- IATA code : HLY


EGOV - RAF Valley

CURRENT METAR :
  • 150950Z 35019KT 9999 -SHRA SCT025 BKN035 07/02 Q1002 BLU TEMPO SCT024 WHT

EXPIRED METARs :
  • 150850Z 35012G22KT 9999 FEW022TCU BKN035 07/02 Q1001 BLU NOSIG
  • 150750Z 36006KT 9999 FEW025TCU SCT030 BKN070 05/01 Q1000 BLU NOSIG

TAF TAF EGOV
Valid from the 15 at 09:00 until the 15 at 18:00 UTC


150727Z 1509/1518 36014KT 9999 FEW025
BECMG 1509/1511 36020G30KT
PROB30
TEMPO 1509/1512 SHRA SCT020TCU
BECMG 1513/1515 35016KT
No reported NOTAMs for that airfield.



MET'MAP, your aeronautical weather chart ! - Copyright ORBIFLY December 2007 - Disclaimer

ORBIFLY MET'MAP TEAM :

Programming & Development : Alexandra Zaïnal
Concept & Development : Baudouin d'Aumeries
Co-Development & Prog : Marc-Olivier Méhu
Technical & hardware support : Manuel Goepfert

Contact : metmap@orbifly.com




SOURCES & CREDITS :

   NOAA